Location: DaVinci Observatory
(43.1080°N, 78.6453°W)
Time: 04:49:50
(UTC-05:00)

Vanguard 1 Rocket - Visible Passes

Search period start: 25 February 2018 00:00
Search period end: 07 March 2018 00:00
Orbit: 655 x 4222 km, 34.3° (Epoch: 24 February)

Date Brightness Start Highest point End Pass type
(mag) Time Alt. Az. Time Alt. Az. Time Alt. Az.
25 Feb 10.5 02:25:35 58° SSE 02:25:35 58° SSE 02:43:33 10° SE visible
25 Feb 10.7 04:42:53 31° WSW 04:50:57 37° SW 05:07:41 10° SSE visible
25 Feb 10.4 19:54:01 10° SSW 20:06:22 33° SE 20:11:05 30° ESE visible
25 Feb 10.3 22:16:44 10° SW 23:01:19 - E 22:28:25 51° SSW visible
26 Feb 10.9 00:43:41 10° W 01:18:37 41° ESE 01:30:48 10° ESE visible
26 Feb 10.5 03:35:56 48° SW 03:37:39 49° SSW 03:57:27 10° SE visible
26 Feb 11.1 05:53:15 13° W 06:04:54 20° SW 06:16:48 10° SSW visible
26 Feb 10.6 18:46:10 10° SSE 18:55:06 20° SE 19:04:23 14° E visible
26 Feb 10.1 21:05:59 10° SW 21:20:48 51° SSE 21:21:43 51° SE visible
26 Feb 10.7 23:31:14 10° WSW 00:11:45 21° ESE 00:17:03 10° ESE visible
27 Feb 10.6 02:29:04 52° SSE 02:29:04 52° SSE 02:45:58 10° SE visible
27 Feb 10.8 04:46:23 28° WSW 04:52:44 31° SW 05:09:10 10° S visible
27 Feb 10.2 19:56:10 10° SSW 20:08:23 39° SE 20:14:57 32° ESE visible
27 Feb 10.2 22:19:34 10° WSW 23:04:57 - E 22:32:17 57° SSW visible
28 Feb 11.0 00:46:36 10° W 01:22:16 37° SE 01:33:20 10° ESE visible
28 Feb 10.6 03:39:36 43° SW 03:39:37 43° SW 03:59:23 10° SSE visible
28 Feb 11.2 05:56:56 11° W 06:06:30 15° WSW 06:15:56 10° SSW visible
28 Feb 10.4 18:47:35 10° S 18:57:01 25° SE 19:08:08 14° E visible
28 Feb 10.0 21:08:41 10° SW 21:23:08 56° SSE 21:25:27 54° SE visible
28 Feb 10.6 23:34:12 10° W 00:15:33 18° ESE 00:19:38 10° ESE visible
01 Mar 10.7 02:32:53 45° S 02:32:53 45° S 02:48:11 10° SE visible
01 Mar 11.0 04:50:14 25° WSW 04:54:26 26° SW 05:10:06 10° S visible
01 Mar 10.0 19:58:36 10° SSW 20:10:35 44° SE 20:18:33 33° ESE visible
01 Mar 10.1 22:22:30 10° WSW 23:08:54 - E 22:35:52 61° SSW visible
02 Mar 11.1 00:49:35 10° W 01:26:15 32° SE 01:35:43 10° SE visible
02 Mar 10.8 03:43:35 37° SSW 03:43:35 37° SSW 04:00:58 10° SSE visible
02 Mar 10.2 18:49:31 10° S 18:59:03 30° SE 19:11:35 14° E visible
02 Mar 9.9 21:11:31 10° WSW 21:25:36 60° SSE 21:28:53 56° SE visible
02 Mar 10.6 23:37:12 10° W 00:19:38 15° ESE 00:22:07 10° ESE visible
03 Mar 10.9 02:37:00 38° S 02:37:00 38° S 02:50:08 10° SE visible
03 Mar 11.1 04:54:21 20° WSW 04:56:06 21° SW 05:10:16 10° SSW visible
03 Mar 9.9 20:01:14 10° SW 20:12:55 49° SSE 20:21:50 33° ESE visible
03 Mar 10.1 22:25:31 10° WSW 23:13:05 - E 22:39:08 63° SSW visible
04 Mar 11.2 00:52:35 10° W 01:30:26 26° SE 01:37:55 10° SE visible
04 Mar 10.9 03:47:47 30° SSW 03:47:47 30° SSW 04:02:07 10° S visible
04 Mar 10.0 18:51:48 10° SSW 19:01:16 35° SE 19:14:44 14° E visible
04 Mar 9.9 21:14:29 10° WSW 21:28:11 62° SSE 21:32:01 56° SE visible
04 Mar 10.5 23:40:15 10° W 00:23:54 11° ESE 00:24:27 10° ESE visible
05 Mar 11.0 02:41:15 30° S 02:41:15 30° S 02:51:46 10° SSE visible
05 Mar 11.3 04:58:36 15° SW 04:58:36 15° SW 05:08:59 10° SSW visible
05 Mar 9.8 20:04:04 10° SW 20:15:25 53° SSE 20:24:51 33° ESE visible
05 Mar 10.0 22:28:36 10° W 22:42:08 63° SSW 22:42:08 63° SSW visible
06 Mar 11.1 00:55:41 10° W 01:34:43 20° SE 01:39:51 10° SE visible
06 Mar 11.1 03:52:04 23° SSW 03:52:04 23° SSW 04:02:40 10° S visible
06 Mar 9.8 18:54:21 10° SSW 19:03:38 40° SE 19:17:39 14° E visible
06 Mar 9.8 21:17:31 10° WSW 21:30:52 64° S 21:34:55 56° SE visible
